Voltar ao catálogo

COSMOS 2491 DEB

AtivoPO
NORAD 57567·DEBRIS·🇷🇺 Russia

Lançado Dec 25, 2013 de Plesetsk Cosmodrome

Loading…

Próximas Passagens (próximas 24 horas)

TLE

AtualizadoSource: Space-Track

Época: Sep 12, 2026, 05:54 UTC

1 57567U 13076BE  26255.24627560  .00001719  00000-0  98107-2 0  9994
2 57567  82.4700  86.2117 0070517  11.8664 348.4066 12.59585257153294

Acompanhe COSMOS 2491 DEB em tempo real com AllMySat

Download on the App Store